Flag for Mexico Weather past 2 weeks in Mexicali, Baja California, Mexico

Now
85 °F

Sunny.


Feels Like: 90 °F
Forecast: 75 / 101 °F
Wind: 3 mph from North

Location: Imperial County Airport

Current Time: Sep 5, 2015 at 9:21:15 AM

Latest Report: Sep 5, 2015 at 8:53 AM


Visibility: 10 mi

Pressure: 29.81 "Hg

Humidity: 63%

Dew point: 71 °F

Location of MexicaliLocation

Historic Weather in Mexicali — Graph

°F

Mexicali temperature yesterday

Maximum temperature yesterday: 102 °F (at 4:53 PM)
Minimum temperature yesterday: 80 °F (at 6:53 AM)
Average temperature yesterday: 91 °F

Past Weeks' High & Low Weather Summary

 TemperatureHumidityPressure
High115 °F (Aug 29, 3:53 PM)74% (Aug 22, 2:53 AM)29.91 "Hg (Aug 22, 2:53 AM)
Low74 °F (Sep 3, 6:53 AM)9% (Aug 30, 2:53 PM)29.62 "Hg (Sep 3, 5:53 PM)
Average95 °F32%29.76 "Hg
* Reported Aug 21 7:53 AM — Sep 5 7:53 AM, Mexicali, Weather by CustomWeather, © 2015

Note: Actual official high and low records may vary slightly from our data, if they occured in-between our weather recording intervals... More about our weather records

Advertising

Mexicali weather history for previous 24 hours

 ConditionsComfort  
Time TempWeatherWind HumidityBarometerVisibility
7:53 AM
Sat, Sep 5
83 °FSunny.5 mph43%29.80 "Hg10 mi
6:53 AM79 °FClear.5 mph72%29.78 "Hg10 mi
5:53 AM81 °FClear.5 mph69%29.75 "Hg10 mi
4:53 AM81 °FClear.7 mph69%29.74 "Hg10 mi
3:53 AM81 °FClear.6 mph69%29.74 "Hg10 mi
2:53 AM79 °FClear.3 mph74%29.73 "Hg10 mi
1:53 AM86 °FClear.No wind57%29.73 "Hg10 mi
12:53 AM86 °FClear.3 mph57%29.72 "Hg10 mi
11:53 PM
Fri, Sep 4
86 °FClear.6 mph57%29.72 "Hg10 mi
10:53 PM88 °FClear.7 mph52%29.70 "Hg10 mi
9:53 PM91 °FClear.12 mph42%29.70 "Hg10 mi
8:53 PM93 °FClear.14 mph34%29.69 "Hg10 mi
7:53 PM95 °FPassing clouds.9 mph30%29.67 "Hg10 mi
6:53 PM94 °FPassing clouds.14 mph24%29.64 "Hg10 mi
5:53 PM98 °FSunny.8 mph21%29.63 "Hg10 mi
4:53 PM102 °FSunny.No wind22%29.63 "Hg10 mi
3:53 PM101 °FPassing clouds.7 mph23%29.64 "Hg10 mi
2:53 PM101 °FSunny.10 mph24%29.65 "Hg10 mi
1:53 PM99 °FSunny.6 mph26%29.68 "Hg10 mi
12:53 PM97 °FPassing clouds.No wind30%29.71 "Hg10 mi
11:53 AM95 °FSunny.7 mph39%29.73 "Hg10 mi
10:53 AM94 °FSunny.7 mph35%29.75 "Hg10 mi
9:53 AM90 °FSunny.5 mph43%29.75 "Hg10 mi
Weather by CustomWeather, © 2015

See weather overviewHow to use our weather pages